Date String (YYYY-MM-DD hh:mm:ss) UTC,Instrument flags,Ambient pressure (hPa),Sample flow (lpm),Bypass flow (lpm),Sample temperature (°C),Ambient temperature (°C),ASC tube jacket temperature (°C),LED temperature (°C),Box temperature (°C),Sample RH (%),Span deviation,Mass concentration (μg/m³),Mass concentration (μg/m³),Mass concentration (μg/m³)
DateTimeUTC,F1_M11,P_M11,Q1_M11,Q2_M11,T1_M11,T2_M11,T3_M11,T4_M11,T5_M11,U1_M11,ZSPAN_M11,X0_M11,X2_M11,X1_M11
2022-08-16 10:00:00,,0830.4,5.00,0.00,31.0,28.9,00.0,39.1,32.1,32.0,0000.0,0006.32,0003.40,0003.20
2022-08-16 10:01:00,,0830.4,5.00,0.00,31.0,28.9,00.0,39.2,32.1,31.8,0000.0,0006.24,0003.38,0003.19
2022-08-16 10:02:00,,0830.4,5.00,0.00,31.0,29.0,00.0,39.2,32.2,31.7,0000.0,0006.23,0003.37,0003.17
2022-08-16 10:03:00,,0830.4,4.99,0.00,31.0,29.0,00.0,39.3,32.2,31.9,0000.0,0006.24,0003.35,0003.15
2022-08-16 10:04:00,,0830.5,4.99,0.00,31.0,29.1,00.0,39.3,32.2,31.9,0000.0,0006.29,0003.36,0003.14
2022-08-16 10:05:00,,0830.5,5.00,0.00,31.0,29.1,00.0,39.4,32.2,31.8,0000.0,0005.96,0003.34,0003.13
2022-08-16 10:06:00,,0830.4,5.00,0.00,31.0,29.1,00.0,39.4,32.2,31.8,0000.0,0005.46,0003.34,0003.13
2022-08-16 10:07:00,,0830.4,5.01,0.00,31.0,29.2,00.0,39.4,32.3,31.8,0000.0,0006.47,0003.37,0003.12
2022-08-16 10:08:00,,0830.4,5.00,0.00,31.0,29.2,00.0,39.4,32.3,32.6,0000.0,0006.51,0003.37,0003.10
2022-08-16 10:09:00,,0830.4,4.99,0.00,31.0,29.2,00.0,39.4,32.3,33.7,0000.0,0006.32,0003.38,0003.11
2022-08-16 10:10:00,,0830.5,5.01,0.00,31.0,29.1,00.0,39.4,32.3,33.2,0000.0,0005.66,0003.39,0003.12
2022-08-16 10:11:00,,0830.4,5.00,0.00,30.9,28.4,00.0,39.4,32.1,33.2,0000.0,0005.72,0003.41,0003.13
2022-08-16 10:12:00,,0830.4,4.99,0.00,30.8,27.9,00.0,39.3,32.0,34.4,0000.0,0006.06,0003.48,0003.16
2022-08-16 10:13:00,,0830.3,5.02,0.00,30.7,27.8,00.0,39.3,31.9,35.1,0000.0,0007.07,0003.53,0003.21
2022-08-16 10:14:00,,0830.2,4.99,0.00,30.7,27.8,00.0,39.3,31.9,35.3,0000.0,0007.31,0003.61,0003.27
2022-08-16 10:15:00,,0830.3,4.99,0.00,31.0,27.9,00.0,39.3,32.1,35.2,0000.0,0007.26,0003.62,0003.30
2022-08-16 10:16:00,,0830.3,5.02,0.00,31.3,28.0,00.0,39.2,32.2,34.8,0000.0,0007.28,0003.64,0003.32
2022-08-16 10:17:00,,0830.4,5.00,0.00,31.5,28.1,00.0,39.3,32.2,34.6,0000.0,0007.55,0003.64,0003.34
2022-08-16 10:18:00,,0830.4,5.00,0.00,31.6,28.2,00.0,39.3,32.2,34.5,0000.0,0006.72,0003.63,0003.37
2022-08-16 10:19:00,,0830.4,5.00,0.00,31.6,28.4,00.0,39.4,32.2,34.2,0000.0,0006.90,0003.70,0003.41
2022-08-16 10:20:00,,0830.4,5.00,0.00,31.6,28.4,00.0,39.4,32.2,33.8,0000.0,0006.97,0003.74,0003.45
2022-08-16 10:21:00,,0830.4,5.00,0.00,31.6,28.5,00.0,39.5,32.2,33.6,0000.0,0007.02,0003.78,0003.49
2022-08-16 10:22:00,,0830.4,5.00,0.00,31.5,28.6,00.0,39.5,32.2,33.4,0000.0,0007.03,0003.79,0003.51
2022-08-16 10:23:00,,0830.4,4.99,0.00,31.5,28.7,00.0,39.6,32.2,32.8,0000.0,0006.72,0003.76,0003.51
2022-08-16 10:24:00,,0830.4,5.00,0.00,31.5,28.7,00.0,39.6,32.2,33.2,0000.0,0005.78,0003.71,0003.48
2022-08-16 10:25:00,,0830.4,5.00,0.00,31.5,28.8,00.0,39.6,32.2,33.7,0000.0,0005.68,0003.67,0003.45
2022-08-16 10:26:00,,0830.4,5.00,0.00,31.4,28.8,00.0,39.7,32.2,34.2,0000.0,0006.11,0003.68,0003.45
2022-08-16 10:27:00,,0830.4,5.00,0.00,31.4,28.9,00.0,39.7,32.3,34.4,0000.0,0006.30,0003.68,0003.46
2022-08-16 10:28:00,,0830.4,4.99,0.00,31.3,28.9,00.0,39.7,32.3,35.1,0000.0,0005.74,0003.68,0003.46
2022-08-16 10:29:00,,0830.4,5.02,0.00,31.4,29.0,00.0,39.7,32.4,35.1,0000.0,0005.81,0003.70,0003.46
2022-08-16 10:30:00,,0830.5,5.00,0.00,31.6,29.0,00.0,39.7,32.5,34.5,0000.0,0005.91,0003.67,0003.44
2022-08-16 10:31:00,,0830.5,5.00,0.00,31.7,29.1,00.0,39.7,32.5,34.2,0000.0,0007.25,0003.68,0003.43
2022-08-16 10:32:00,,0830.5,4.99,0.00,31.7,29.1,00.0,39.7,32.5,34.2,0000.0,0007.40,0003.66,0003.41
2022-08-16 10:33:00,,0830.5,4.99,0.00,31.7,29.1,00.0,39.8,32.5,34.1,0000.0,0007.43,0003.67,0003.40
2022-08-16 10:34:00,,0830.5,5.00,0.00,31.7,29.2,00.0,39.8,32.5,34.1,0000.0,0007.51,0003.70,0003.43
2022-08-16 10:35:00,,0830.5,5.00,0.00,31.7,29.2,00.0,39.8,32.5,34.1,0000.0,0007.58,0003.75,0003.47
2022-08-16 10:36:00,,0830.4,5.00,0.00,31.7,29.3,00.0,39.9,32.5,33.9,0000.0,0007.61,0003.79,0003.50
2022-08-16 10:37:00,,0830.5,5.00,0.00,31.7,29.3,00.0,39.9,32.6,33.9,0000.0,0007.50,0003.85,0003.53
2022-08-16 10:38:00,,0830.5,5.01,0.00,31.6,29.3,00.0,39.9,32.6,34.0,0000.0,0007.47,0003.89,0003.56
2022-08-16 10:39:00,,0830.5,5.00,0.00,31.6,29.3,00.0,39.9,32.6,34.2,0000.0,0007.58,0003.94,0003.59
2022-08-16 10:40:00,,0830.5,4.99,0.00,31.6,28.8,00.0,39.9,32.4,34.2,0000.0,0007.64,0003.98,0003.62
2022-08-16 10:41:00,,0830.5,5.01,0.00,31.5,28.2,00.0,39.8,32.3,34.3,0000.0,0007.43,0003.99,0003.65
2022-08-16 10:42:00,,0830.5,4.99,0.00,31.3,27.9,00.0,39.8,32.1,34.5,0000.0,0006.26,0004.00,0003.68
2022-08-16 10:43:00,,0830.5,5.01,0.00,31.2,27.9,00.0,39.8,32.0,34.9,0000.0,0006.51,0004.04,0003.71
2022-08-16 10:44:00,,0830.5,4.99,0.00,31.1,28.0,00.0,39.7,32.0,34.9,0000.0,0006.66,0004.08,0003.75
2022-08-16 10:45:00,,0830.5,5.01,0.00,31.1,28.1,00.0,39.7,32.1,35.0,0000.0,0006.72,0004.08,0003.76
2022-08-16 10:46:00,,0830.5,4.99,0.00,31.2,28.2,00.0,39.7,32.2,34.6,0000.0,0006.79,0004.06,0003.76
2022-08-16 10:47:00,,0830.5,5.00,0.00,31.3,28.3,00.0,39.7,32.2,34.1,0000.0,0006.90,0004.07,0003.75
2022-08-16 10:48:00,,0830.5,5.00,0.00,31.3,28.4,00.0,39.6,32.2,33.7,0000.0,0006.88,0004.05,0003.75
2022-08-16 10:49:00,,0830.5,5.00,0.00,31.3,28.5,00.0,39.6,32.2,33.6,0000.0,0006.76,0004.02,0003.74
2022-08-16 10:50:00,,0830.5,5.00,0.00,31.2,28.6,00.0,39.6,32.2,33.6,0000.0,0006.66,0004.00,0003.73
2022-08-16 10:51:00,,0830.5,4.99,0.00,31.2,28.7,00.0,39.6,32.2,33.5,0000.0,0006.49,0003.96,0003.72
2022-08-16 10:52:00,,0830.5,5.00,0.00,31.2,28.8,00.0,39.6,32.2,33.1,0000.0,0006.46,0003.95,0003.71
2022-08-16 10:53:00,,0830.5,5.00,0.00,31.2,28.8,00.0,39.6,32.2,33.1,0000.0,0006.37,0003.92,0003.69
2022-08-16 10:54:00,,0830.5,5.01,0.00,31.2,28.9,00.0,39.7,32.3,33.4,0000.0,0006.04,0003.90,0003.68
2022-08-16 10:55:00,,0830.5,5.00,0.00,31.1,29.0,00.0,39.7,32.3,33.1,0000.0,0005.83,0003.87,0003.65
2022-08-16 10:56:00,,0830.6,4.98,0.00,31.1,29.0,00.0,39.7,32.3,33.0,0000.0,0005.79,0003.87,0003.64
2022-08-16 10:57:00,,0830.5,5.00,0.00,31.1,29.0,00.0,39.7,32.3,32.8,0000.0,0005.70,0003.89,0003.63
2022-08-16 10:58:00,,0830.5,5.01,0.00,31.1,29.1,00.0,39.7,32.3,32.8,0000.0,0005.59,0003.87,0003.62
2022-08-16 10:59:00,,0830.5,5.00,0.00,31.1,29.1,00.0,39.7,32.3,32.8,0000.0,0005.46,0003.85,0003.60
